| time (UTC) | temp F | wind direction | speed knots | gust knots | rain 1hr in | rain 24hr in | rain mn in | humidity % | barometer mb |
| 20260503200607 | 59 | 278 | 1.7 | 6.1 | 0.00 | 0.01 | 0.01 | 80 | 1013.0 |
| 20260503200105 | 59 | 285 | 1.7 | 6.1 | 0.00 | 0.01 | 0.01 | 80 | 1013.0 |
| 20260503195604 | 58 | 272 | 2.6 | 5.2 | 0.00 | 0.01 | 0.01 | 81 | 1013.1 |
| 20260503194604 | 58 | 282 | 2.6 | 6.1 | 0.00 | 0.01 | 0.01 | 81 | 1013.4 |
| 20260503193604 | 58 | 277 | 2.6 | 6.1 | 0.00 | 0.01 | 0.01 | 82 | 1013.5 |
| 20260503193105 | 58 | 286 | 1.7 | 6.1 | 0.00 | 0.01 | 0.01 | 82 | 1013.5 |
| 20260503192604 | 58 | 299 | 3.5 | 6.1 | 0.00 | 0.01 | 0.01 | 82 | 1013.5 |
| 20260503191604 | 58 | 323 | 0.9 | 5.2 | 0.00 | 0.01 | 0.01 | 84 | 1013.5 |
| 20260503191104 | 58 | 299 | 2.6 | 6.1 | 0.00 | 0.01 | 0.01 | 83 | 1013.6 |
| 20260503190604 | 58 | 264 | 2.6 | 6.1 | 0.00 | 0.01 | 0.01 | 83 | 1013.5 |
| 20260503190104 | 58 | 280 | 2.6 | 6.1 | 0.00 | 0.01 | 0.01 | 84 | 1013.5 |
| 20260503185604 | 58 | 274 | 1.7 | 5.2 | 0.00 | 0.01 | 0.01 | 85 | 1013.5 |
| 20260503185103 | 58 | 271 | 1.7 | 5.2 | 0.00 | 0.01 | 0.01 | 84 | 1013.5 |
| 20260503184604 | 58 | 279 | 1.7 | 5.2 | 0.00 | 0.01 | 0.01 | 85 | 1013.5 |
| 20260503184104 | 57 | 281 | 2.6 | 5.2 | 0.00 | 0.01 | 0.01 | 86 | 1013.5 |
| 20260503183104 | 57 | 308 | 1.7 | 6.1 | 0.00 | 0.01 | 0.01 | 87 | 1013.5 |
| 20260503182605 | 57 | 299 | 2.6 | 6.1 | 0.00 | 0.01 | 0.01 | 87 | 1013.4 |
| 20260503182104 | 57 | 278 | 2.6 | 6.1 | 0.00 | 0.01 | 0.01 | 88 | 1013.4 |
| 20260503181605 | 57 | 275 | 2.6 | 7.0 | 0.00 | 0.01 | 0.01 | 88 | 1013.4 |
| 20260503181104 | 57 | 284 | 3.5 | 7.0 | 0.00 | 0.01 | 0.01 | 89 | 1013.4 |
| 20260503175104 | 58 | 296 | 5.2 | 8.7 | 0.00 | 0.01 | 0.01 | 92 | 1013.2 |
| 20260503173605 | 58 | 279 | 5.2 | 7.8 | 0.00 | 0.01 | 0.01 | 94 | 1013.2 |
| 20260503172604 | 57 | 278 | 3.5 | 7.0 | 0.00 | 0.01 | 0.01 | 96 | 1013.2 |
| 20260503172104 | 57 | 280 | 4.3 | 7.0 | 0.00 | 0.01 | 0.01 | 99 | 1013.2 |
| 20260503171604 | 57 | 287 | 4.3 | 7.0 | 0.00 | 0.01 | 0.01 | 100 | 1013.2 |
| 20260503171104 | 57 | 277 | 3.5 | 7.0 | 0.00 | 0.01 | 0.01 | 100 | 1013.2 |
| 20260503170604 | 57 | 293 | 2.6 | 5.2 | 0.00 | 0.01 | 0.01 | 100 | 1013.1 |
| 20260503170107 | 56 | 309 | 1.7 | 4.3 | 0.00 | 0.01 | 0.01 | 100 | 1013.0 |
| 20260503160104 | 56 | 289 | 1.7 | 4.3 | 0.00 | 0.01 | 0.01 | 100 | 1013.1 |
| 20260503150606 | 56 | 287 | 1.7 | 2.6 | 0.00 | 0.01 | 0.01 | 100 | 1012.7 |
| 20260503140105 | 56 | 279 | 0.9 | 2.6 | 0.00 | 0.01 | 0.01 | 96 | 1012.6 |
| 20260503131104 | 56 | 322 | 1.7 | 2.6 | 0.01 | 0.01 | 0.01 | 95 | 1011.7 |
| 20260503130104 | 56 | 323 | 0.0 | 1.7 | 0.01 | 0.01 | 0.01 | 95 | 1011.5 |
| 20260503110607 | 56 | 324 | 0.0 | 2.6 | 0.00 | 0.00 | 0.00 | 92 | 1011.5 |
| 20260503110103 | 56 | 323 | 0.9 | 2.6 | 0.00 | 0.00 | 0.00 | 92 | 1011.5 |
| 20260503100104 | 57 | 330 | 0.9 | 2.6 | 0.00 | 0.00 | 0.00 | 89 | 1011.5 |
| 20260503090104 | 58 | 314 | 0.9 | 4.3 | 0.00 | 0.00 | 0.00 | 85 | 1012.1 |
| 20260503081104 | 61 | 338 | 0.0 | 1.7 | 0.00 | 0.00 | 0.00 | 75 | 1012.4 |
| 20260503080104 | 61 | 332 | 0.0 | 1.7 | 0.00 | 0.00 | 0.00 | 74 | 1012.6 |
| 20260503072604 | 62 | 319 | 0.0 | 0.9 | 0.00 | 0.00 | 0.00 | 69 | 1012.5 |
| 20260503072105 | 62 | 319 | 0.0 | 0.9 | 0.00 | 0.00 | 0.00 | 68 | 1012.4 |
| 20260503071604 | 63 | 319 | 0.0 | 0.9 | 0.00 | 0.00 | 0.00 | 67 | 1012.4 |
| 20260503070606 | 63 | 319 | 0.0 | 0.9 | 0.00 | 0.00 | 0.00 | 66 | 1012.5 |
| 20260503070104 | 63 | 319 | 0.0 | 0.9 | 0.00 | 0.00 | 0.00 | 66 | 1012.4 |
| 20260503055104 | 65 | 333 | 0.0 | 0.9 | 0.00 | 0.00 | 0.00 | 62 | 1012.5 |
| 20260503054104 | 66 | 335 | 0.0 | 0.9 | 0.00 | 0.00 | 0.00 | 59 | 1012.4 |
| 20260503053603 | 66 | 335 | 0.0 | 0.0 | 0.00 | 0.00 | 0.00 | 55 | 1012.3 |
| 20260503053104 | 66 | 335 | 0.0 | 0.0 | 0.00 | 0.00 | 0.00 | 52 | 1012.2 |
| 20260503052604 | 66 | 335 | 0.0 | 0.0 | 0.00 | 0.00 | 0.00 | 51 | 1012.2 |
| 20260503052104 | 66 | 335 | 0.0 | 0.9 | 0.00 | 0.00 | 0.00 | 52 | 1012.3 |
| 20260503051605 | 66 | 335 | 0.0 | 1.7 | 0.00 | 0.00 | 0.00 | 46 | 1012.3 |
| 20260503051104 | 67 | 335 | 0.0 | 2.6 | 0.00 | 0.00 | 0.00 | 49 | 1012.2 |
| 20260503050604 | 68 | 340 | 0.9 | 2.6 | 0.00 | 0.00 | 0.00 | 47 | 1012.2 |
| 20260503050105 | 69 | 342 | 1.7 | 2.6 | 0.00 | 0.00 | 0.00 | 49 | 1012.1 |
| 20260503045605 | 69 | 350 | 1.7 | 2.6 | 0.00 | 0.00 | 0.00 | 50 | 1012.1 |
| 20260503044604 | 69 | 355 | 0.0 | 2.6 | 0.00 | 0.00 | 0.00 | 36 | 1012.0 |
| 20260503044103 | 69 | 355 | 0.0 | 1.7 | 0.00 | 0.00 | 0.00 | 32 | 1011.8 |
| 20260503043604 | 69 | 352 | 0.0 | 1.7 | 0.00 | 0.00 | 0.00 | 35 | 1011.7 |
| 20260503043104 | 69 | 349 | 0.0 | 0.9 | 0.00 | 0.00 | 0.00 | 39 | 1011.7 |
| 20260503042604 | 69 | 349 | 0.0 | 0.0 | 0.00 | 0.00 | 0.00 | 41 | 1011.6 |
| 20260503042103 | 70 | 349 | 0.0 | 0.9 | 0.00 | 0.00 | 0.00 | 47 | 1011.4 |
| 20260503041606 | 70 | 349 | 0.0 | 0.9 | 0.00 | 0.00 | 0.00 | 45 | 1011.5 |
| 20260503041104 | 70 | 350 | 0.0 | 0.0 | 0.00 | 0.00 | 0.00 | 49 | 1011.4 |
| 20260503040606 | 71 | 350 | 0.0 | 0.0 | 0.00 | 0.00 | 0.00 | 49 | 1011.3 |
| 20260503040104 | 71 | 350 | 0.0 | 0.0 | 0.00 | 0.00 | 0.00 | 48 | 1011.3 |
| 20260503035603 | 71 | 350 | 0.0 | 0.0 | 0.00 | 0.00 | 0.00 | 47 | 1011.2 |
| 20260503035104 | 72 | 350 | 0.0 | 0.0 | 0.00 | 0.00 | 0.00 | 47 | 1011.1 |
| 20260503034604 | 72 | 350 | 0.0 | 0.0 | 0.00 | 0.00 | 0.00 | 47 | 1011.1 |
| 20260503033103 | 73 | 349 | 0.0 | 1.7 | 0.00 | 0.00 | 0.00 | 46 | 1011.1 |
| 20260503032605 | 73 | 349 | 0.9 | 2.6 | 0.00 | 0.00 | 0.00 | 46 | 1011.1 |
| 20260503031603 | 73 | 345 | 0.9 | 1.7 | 0.00 | 0.00 | 0.00 | 44 | 1011.1 |
| 20260503031106 | 73 | 281 | 0.9 | 1.7 | 0.00 | 0.00 | 0.00 | 43 | 1011.1 |
| 20260503030606 | 73 | 281 | 0.0 | 0.9 | 0.00 | 0.00 | 0.00 | 43 | 1011.1 |
| 20260503030104 | 73 | 281 | 0.0 | 2.6 | 0.00 | 0.00 | 0.00 | 42 | 1011.0 |
| 20260503025603 | 73 | 281 | 0.9 | 2.6 | 0.00 | 0.00 | 0.00 | 43 | 1011.0 |
| 20260503025104 | 74 | 281 | 0.9 | 2.6 | 0.00 | 0.00 | 0.00 | 43 | 1011.0 |
| 20260503024106 | 74 | 284 | 2.6 | 4.3 | 0.00 | 0.00 | 0.00 | 40 | 1010.8 |
| 20260503023604 | 75 | 290 | 2.6 | 4.3 | 0.00 | 0.00 | 0.00 | 39 | 1010.7 |
| 20260503023104 | 75 | 283 | 1.7 | 2.6 | 0.00 | 0.00 | 0.00 | 37 | 1010.6 |
| 20260503022603 | 76 | 280 | 1.7 | 2.6 | 0.00 | 0.00 | 0.00 | 36 | 1010.6 |
| 20260503021104 | 78 | 279 | 2.6 | 4.3 | 0.00 | 0.00 | 0.00 | 35 | 1010.5 |
| 20260503020104 | 79 | 279 | 1.7 | 4.3 | 0.00 | 0.00 | 0.00 | 33 | 1010.6 |
| 20260503015604 | 79 | 279 | 2.6 | 4.3 | 0.00 | 0.00 | 0.00 | 31 | 1010.6 |
| 20260503015104 | 80 | 277 | 2.6 | 4.3 | 0.00 | 0.00 | 0.00 | 31 | 1010.6 |
| 20260503014604 | 81 | 265 | 1.7 | 2.6 | 0.00 | 0.00 | 0.00 | 29 | 1010.5 |
| 20260503014104 | 81 | 265 | 1.7 | 4.3 | 0.00 | 0.00 | 0.00 | 28 | 1010.5 |
| 20260503013604 | 81 | 254 | 1.7 | 7.0 | 0.00 | 0.00 | 0.00 | 27 | 1010.5 |
| 20260503013104 | 81 | 353 | 3.5 | 7.0 | 0.00 | 0.00 | 0.00 | 26 | 1010.5 |
| 20260503012604 | 81 | 340 | 2.6 | 8.7 | 0.00 | 0.00 | 0.00 | 28 | 1010.4 |
| 20260503012104 | 81 | 294 | 2.6 | 10.4 | 0.00 | 0.00 | 0.00 | 27 | 1010.3 |
| 20260503011604 | 81 | 256 | 4.3 | 10.4 | 0.00 | 0.00 | 0.00 | 28 | 1010.2 |
| 20260503011104 | 81 | 315 | 2.6 | 7.0 | 0.00 | 0.00 | 0.00 | 28 | 1010.3 |
| 20260503010607 | 81 | 260 | 4.3 | 7.8 | 0.00 | 0.00 | 0.00 | 29 | 1010.2 |
| 20260503005603 | 82 | 284 | 5.2 | 7.8 | 0.00 | 0.00 | 0.00 | 30 | 1010.1 |
| 20260503005104 | 82 | 255 | 4.3 | 8.7 | 0.00 | 0.00 | 0.00 | 31 | 1010.1 |
| 20260503004604 | 82 | 259 | 4.3 | 10.4 | 0.00 | 0.00 | 0.00 | 30 | 1010.1 |
| 20260503004104 | 82 | 282 | 4.3 | 10.4 | 0.00 | 0.00 | 0.00 | 30 | 1010.1 |
| 20260503003604 | 82 | 267 | 5.2 | 10.4 | 0.00 | 0.00 | 0.00 | 30 | 1010.0 |
| 20260503003105 | 83 | 320 | 5.2 | 10.4 | 0.00 | 0.00 | 0.00 | 31 | 1010.0 |
| 20260503002604 | 83 | 280 | 5.2 | 10.4 | 0.00 | 0.00 | 0.00 | 30 | 1010.0 |
| 20260503002104 | 83 | 285 | 4.3 | 10.4 | 0.00 | 0.00 | 0.00 | 29 | 1010.0 |
| 20260503001604 | 84 | 273 | 5.2 | 10.4 | 0.00 | 0.00 | 0.00 | 29 | 1010.0 |
| 20260503001103 | 84 | 289 | 5.2 | 8.7 | 0.00 | 0.00 | 0.00 | 28 | 1009.9 |
| 20260503000105 | 84 | 306 | 5.2 | 10.4 | 0.00 | 0.00 | 0.00 | 27 | 1009.9 |
| 20260502235604 | 85 | 294 | 4.3 | 8.7 | 0.00 | 0.00 | 0.00 | 23 | 1009.9 |
| 20260502234604 | 85 | 272 | 6.1 | 8.7 | 0.00 | 0.00 | 0.00 | 22 | 1009.9 |
| 20260502233604 | 85 | 281 | 5.2 | 8.7 | 0.00 | 0.00 | 0.00 | 23 | 1009.7 |
| 20260502233104 | 85 | 292 | 5.2 | 10.4 | 0.00 | 0.00 | 0.00 | 22 | 1010.0 |
| 20260502232105 | 85 | 306 | 5.2 | 10.4 | 0.00 | 0.00 | 0.00 | 24 | 1010.0 |
| 20260502231604 | 85 | 286 | 4.3 | 10.4 | 0.00 | 0.00 | 0.00 | 23 | 1010.0 |
| 20260502231104 | 85 | 299 | 4.3 | 10.4 | 0.00 | 0.00 | 0.00 | 23 | 1010.0 |
| 20260502230607 | 85 | 282 | 5.2 | 12.2 | 0.00 | 0.00 | 0.00 | 24 | 1010.0 |
| 20260502230104 | 85 | 294 | 5.2 | 12.2 | 0.00 | 0.00 | 0.00 | 24 | 1010.0 |
| 20260502225104 | 86 | 292 | 5.2 | 8.7 | 0.00 | 0.00 | 0.00 | 22 | 1010.1 |
| 20260502224604 | 86 | 340 | 4.3 | 10.4 | 0.00 | 0.00 | 0.00 | 23 | 1010.1 |
| 20260502224104 | 85 | 272 | 5.2 | 10.4 | 0.00 | 0.00 | 0.00 | 21 | 1010.2 |
| 20260502222605 | 84 | 302 | 5.2 | 10.4 | 0.00 | 0.00 | 0.00 | 24 | 1010.6 |
| 20260502222105 | 84 | 292 | 5.2 | 10.4 | 0.00 | 0.00 | 0.00 | 24 | 1010.6 |
| 20260502221604 | 85 | 286 | 6.1 | 10.4 | 0.00 | 0.00 | 0.00 | 24 | 1010.6 |
| 20260502221104 | 85 | 314 | 6.1 | 10.4 | 0.00 | 0.00 | 0.00 | 23 | 1010.7 |
| 20260502220606 | 85 | 296 | 6.1 | 11.3 | 0.00 | 0.00 | 0.00 | 24 | 1010.7 |
| 20260502215604 | 84 | 296 | 6.1 | 11.3 | 0.00 | 0.00 | 0.00 | 22 | 1011.1 |
| 20260502215103 | 84 | 307 | 6.1 | 10.4 | 0.00 | 0.00 | 0.00 | 23 | 1011.1 |
| 20260502214605 | 84 | 289 | 5.2 | 10.4 | 0.00 | 0.00 | 0.00 | 25 | 1011.1 |
| 20260502214105 | 84 | 276 | 5.2 | 10.4 | 0.00 | 0.00 | 0.00 | 26 | 1011.0 |
| 20260502213604 | 84 | 272 | 5.2 | 10.4 | 0.00 | 0.00 | 0.00 | 27 | 1011.1 |
| 20260502213103 | 84 | 285 | 5.2 | 10.4 | 0.00 | 0.00 | 0.00 | 28 | 1011.1 |
| 20260502212605 | 84 | 274 | 6.1 | 10.4 | 0.00 | 0.00 | 0.00 | 29 | 1011.1 |
| 20260502211604 | 83 | 283 | 5.2 | 7.8 | 0.00 | 0.00 | 0.00 | 30 | 1011.2 |
| 20260502211104 | 83 | 272 | 5.2 | 7.8 | 0.00 | 0.00 | 0.00 | 29 | 1011.1 |
| 20260502210606 | 83 | 274 | 4.3 | 7.0 | 0.00 | 0.00 | 0.00 | 28 | 1011.1 |
| 20260502210104 | 83 | 290 | 4.3 | 7.0 | 0.00 | 0.00 | 0.00 | 28 | 1011.3 |
| 20260502205604 | 82 | 299 | 4.3 | 7.8 | 0.00 | 0.00 | 0.00 | 31 | 1011.3 |
| 20260502205104 | 82 | 309 | 4.3 | 7.8 | 0.00 | 0.00 | 0.00 | 31 | 1011.5 |
| 20260502204604 | 82 | 281 | 4.3 | 7.8 | 0.00 | 0.00 | 0.00 | 33 | 1011.6 |
| 20260502204104 | 81 | 269 | 4.3 | 7.0 | 0.00 | 0.00 | 0.00 | 32 | 1011.6 |
| 20260502203604 | 81 | 306 | 4.3 | 7.0 | 0.00 | 0.00 | 0.00 | 34 | 1011.7 |
| 20260502203104 | 80 | 279 | 2.6 | 7.0 | 0.00 | 0.00 | 0.00 | 35 | 1011.6 |
| 20260502202604 | 80 | 272 | 4.3 | 7.0 | 0.00 | 0.00 | 0.00 | 34 | 1011.6 |
| 20260502202104 | 80 | 274 | 4.3 | 8.7 | 0.00 | 0.00 | 0.00 | 35 | 1011.7 |
| 20260502201604 | 80 | 238 | 4.3 | 8.7 | 0.00 | 0.00 | 0.00 | 36 | 1011.9 |
| 20260502201104 | 80 | 289 | 4.3 | 8.7 | 0.00 | 0.00 | 0.00 | 36 | 1012.0 |